Regional Weather Roundup
Issued by NWS

Home | Current Version | Previous Version | Graphics & Text | Print | Product List | Glossary On
Versions: 1 2 3 4 5 6 7 8 9 10 11 12 13 14 15 16 17 18 19 20 21 22 23 24 25 26 27 28 29 30 31 32 33 34 35 36 37 38 39 40 41 42 43 44 45 46 47 48 49 50
000
ASUS43 KDMX 241006
RWRIA

WEATHER ROUNDUP FOR IOWA
NATIONAL WEATHER SERVICE DES MOINES IA
500 AM CDT FRI MAR 24 2017

NOTE: "FAIR" INDICATES FEW OR NO CLOUDS BELOW 12,000 FEET WITH NO
SIGNIFICANT WEATHER AND/OR OBSTRUCTIONS TO VISIBILITY.

* - THESE STATIONS ARE NOT NWS STATIONS...THUS NOT UNDER NWS
QUALITY CONTROL.  THEY ALSO DO NOT REPORT WEATHER SUCH
AS PRECIPITATION OR FOG.

IAZ001>003-012>014-020>022-031>034-043>046-241100-
   NORTHWEST IOWA

CITY           SKY/WX    TMP DP  RH WIND       PRES   REMARKS
CARROLL *      CLOUDY    46  46 100 N3        29.74F
CHEROKEE *     DRIZZLE   42  42 100 NW5       29.75R
LE MARS *      CLOUDY    45  45 100 N6        29.77F
ORANGE CITY *  DRIZZLE   41  41 100 N7        29.77F
SHELDON *      LGT RAIN  39  39 100 N8        29.78R WCI  34
SIOUX CITY     LGT RAIN  47  47 100 NW10      29.81R
SPENCER        LGT RAIN  41  40  96 N12       29.77R
STORM LAKE *   CLOUDY    43  41  93 SE3       29.73F FOG
$$

IAZ055>058-069>071-079>083-090>094-241100-
   SOUTHWEST IOWA

CITY           SKY/WX    TMP DP  RH WIND       PRES   REMARKS
ATLANTIC *     CLOUDY    61  50  67 CALM      29.74S
AUDUBON *      CLOUDY    57  52  82 NW3       29.75F
CLARINDA *     MOCLDY    64  50  59 S10       29.74F
COUNCIL BLFS * CLOUDY    57  57 100 N9        29.73F
CRESTON *      CLOUDY    63  48  59 S15       29.75F
HARLAN  *      CLOUDY    55  55 100 N5        29.77F
LAMONI         CLOUDY    59  46  62 S7        29.77F
RED OAK *      CLOUDY    63  50  63 SW8       29.72S
SHENANDOAH *   MOCLDY    64  50  59 S9        29.72F
$$

IAZ047>049-059>061-072>074-084-241100-
   CENTRAL IOWA

CITY           SKY/WX    TMP DP  RH WIND       PRES   REMARKS
AMES           CLOUDY    48  43  82 CALM      29.76R
ANKENY *       CLOUDY    52  45  76 CALM      29.76R
BOONE *        CLOUDY    52  43  71 S7        29.75S
CHARITON *     CLOUDY    61  46  59 S15G21    29.77F
DES MOINES     CLOUDY    59  46  62 S8        29.75S
GRINNELL*      MOCLDY    51  44  78 S10       29.79S
KNOXVILLE *    MOCLDY    61  46  59 S14       29.75S
MARSHALLTOWN   CLOUDY    48  42  80 S7        29.75S
NEWTON *       PTCLDY    48  43  81 S10       29.76S
PELLA *        PTCLDY    56  47  70 S8        29.78F
PERRY *        CLOUDY    51  41  68 CALM      29.75S
$$

IAZ004>006-015-016-023>025-035-036-241100-
   NORTH CENTRAL IOWA

CITY           SKY/WX    TMP DP  RH WIND       PRES   REMARKS
ALGONA *       CLOUDY    41  41 100 CALM      29.75R FOG
CLARION *      CLOUDY    41  41 100 E12       29.75F
ESTHERVILLE    CLOUDY    39  39 100 NE16G36   29.74R WCI  30
FORT DODGE *   CLOUDY    43  39  87 CALM      29.76F
MASON CITY     CLOUDY    39  37  92 E10       29.77F WCI  32
FOREST CITY *  CLOUDY    39  39 100 SE6       29.75R WCI  35
WEBSTER CITY * CLOUDY    50  43  76 CALM      29.74F
IOWA FALLS *   MOCLDY    49  43  79 S8        29.76F
$$

IAZ007>011-017>019-026>030-037>042-050>054-066-241100-
   NORTHEAST IOWA

CITY           SKY/WX    TMP DP  RH WIND       PRES   REMARKS
CEDAR RAPIDS   CLOUDY    48  44  86 S12       29.79S
CHARLES CITY * CLOUDY    41  41 100 NE7       29.79F
CLINTON *      CLOUDY    48  44  86 S9        29.85F
DECORAH *      CLOUDY    41  39  93 NE7       29.80F
DUBUQUE        CLOUDY    44  40  85 S14       29.81S
MONTICELLO *   CLOUDY    46  41  81 SE7       29.81S
OELWEIN *      CLOUDY    41  41 100 NW3       29.80R
WATERLOO       CLOUDY    43  39  86 CALM      29.78R
$$

IAZ064-065-067-068-078-241100-
   EAST CENTRAL IOWA

CITY           SKY/WX    TMP DP  RH WIND       PRES   REMARKS
DAVENPORT      PTCLDY    53  45  74 S17       29.85S
IOWA CITY      PTCLDY    46  41  82 CALM      29.84S
MUSCATINE *    CLEAR     39  37  93 CALM      29.86R
QUAD CITIES    PTCLDY    53  44  71 S12       29.84F
$$

IAZ062-063-075>077-085>089-095>099-241100-
   SOUTHEAST IOWA

CITY           SKY/WX    TMP DP  RH WIND       PRES   REMARKS
BURLINGTON     CLOUDY    51  46  83 S10       29.87R
FAIRFIELD *    PTCLDY    55  48  76 S12       29.82S
FORT MADISON * PTCLDY    52  46  82 S9        29.87S
KEOKUK *       CLOUDY    55  48  76 S7        29.87R
OSKALOOSA *      N/A     52  46  79 S12       29.80S
CENTERVILLE *    N/A     61  48  63 S13       29.82S
OTTUMWA        PTCLDY    56  48  74 S12       29.80R
WASHINGTON *   CLOUDY    52  46  82 S10       29.84R
$$

ABBREVIATIONS USED IN REMARKS
   TC - TEMPERATURES IN CELSIUS
  WCI - WIND CHILL INDEX
   HX - HEAT INDEX
  VSB - VISIBILITY
$$





USA.gov is the U.S. government's official web portal to all federal, state and local government web resources and services.